{"data":{"norad_id":56119,"epoch":"2026-09-20T21:57:10.266624Z","epoch_age_seconds":72822,"freshness":"FRESH","line1":"1 56119U 23046AC  26263.91470216 -.00000093  00000+0  61393-5 0  9995","line2":"2 56119  43.0021 124.7739 0001056 241.4359 118.6386 15.27575697192051","mean_motion":15.27575697,"eccentricity":0.0001056,"inclination_deg":43.0021,"raan_deg":124.7739,"arg_perigee_deg":241.4359,"mean_anomaly_deg":118.6386,"bstar":6.1393e-6,"rev_number":19205,"period_min":94.267014251929,"perigee_km":482.33743818752,"apogee_km":483.78652341227,"semimajor_km":6861.1989807999,"source":"CELESTRAK","updated_at":"2026-09-21T09:00:33.385255Z"}}